| time (UTC) | temp F | wind direction | speed MPH | gust MPH | rain 1hr in | rain 24hr in | rain mn in | humidity % | barometer mb |
| 20260505024548 | 51 | 0 | 0.0 | 2.0 | 0.01 | 0.05 | 0.05 | 81 | 1010.3 |
| 20260505024038 | 51 | 156 | 0.0 | 2.0 | 0.01 | 0.05 | 0.05 | 81 | 1010.2 |
| 20260505023538 | 51 | 156 | 0.0 | 2.0 | 0.01 | 0.05 | 0.05 | 80 | 1010.3 |
| 20260505023048 | 51 | 0 | 0.0 | 2.0 | 0.01 | 0.05 | 0.05 | 79 | 1010.2 |
| 20260505022534 | 51 | 156 | 0.0 | 2.0 | 0.01 | 0.05 | 0.05 | 79 | 1010.3 |
| 20260505022037 | 51 | 0 | 0.0 | 2.0 | 0.01 | 0.05 | 0.05 | 79 | 1010.2 |
| 20260505021549 | 51 | 156 | 0.0 | 4.0 | 0.01 | 0.05 | 0.05 | 78 | 1010.2 |
| 20260505021033 | 52 | 156 | 0.0 | 4.0 | 0.01 | 0.05 | 0.05 | 78 | 1010.2 |
| 20260505020536 | 52 | 156 | 1.0 | 5.0 | 0.00 | 0.04 | 0.04 | 78 | 1010.3 |
| 20260505020046 | 52 | 175 | 1.0 | 6.0 | 0.00 | 0.04 | 0.04 | 78 | 1010.2 |
| 20260505015534 | 52 | 184 | 2.0 | 6.0 | 0.00 | 0.04 | 0.04 | 78 | 1010.3 |
| 20260505015034 | 53 | 183 | 2.0 | 5.0 | 0.00 | 0.04 | 0.04 | 78 | 1010.4 |
| 20260505014546 | 53 | 226 | 1.0 | 3.0 | 0.00 | 0.04 | 0.04 | 78 | 1010.3 |
| 20260505014036 | 53 | 325 | 0.0 | 2.0 | 0.00 | 0.04 | 0.04 | 76 | 1010.2 |
| 20260505013534 | 53 | 325 | 0.0 | 2.0 | 0.01 | 0.04 | 0.04 | 75 | 1010.2 |
| 20260505013049 | 53 | 352 | 0.0 | 2.0 | 0.01 | 0.04 | 0.04 | 73 | 1010.3 |
| 20260505012537 | 53 | 0 | 0.0 | 2.0 | 0.02 | 0.04 | 0.04 | 74 | 1010.2 |
| 20260505012034 | 53 | 0 | 0.0 | 2.0 | 0.02 | 0.04 | 0.04 | 73 | 1010.2 |
| 20260505011546 | 53 | 0 | 0.0 | 2.0 | 0.02 | 0.04 | 0.04 | 73 | 1010.3 |
| 20260505011033 | 53 | 0 | 1.0 | 2.0 | 0.03 | 0.04 | 0.04 | 73 | 1010.3 |
| 20260505010537 | 53 | 352 | 1.0 | 5.0 | 0.04 | 0.04 | 0.04 | 72 | 1010.3 |
| 20260505010047 | 54 | 2 | 1.0 | 5.0 | 0.04 | 0.04 | 0.04 | 69 | 1010.2 |
| 20260505005537 | 54 | 17 | 2.0 | 5.0 | 0.04 | 0.04 | 0.04 | 69 | 1010.2 |
| 20260505005037 | 54 | 48 | 3.0 | 5.0 | 0.04 | 0.04 | 0.04 | 68 | 1010.2 |
| 20260505004548 | 54 | 21 | 1.0 | 3.0 | 0.04 | 0.04 | 0.04 | 70 | 1010.3 |
| 20260505004036 | 54 | 58 | 0.0 | 3.0 | 0.04 | 0.04 | 0.04 | 69 | 1010.3 |
| 20260505003536 | 55 | 58 | 0.0 | 3.0 | 0.03 | 0.03 | 0.03 | 67 | 1010.3 |
| 20260505003042 | 55 | 320 | 1.0 | 8.0 | 0.03 | 0.03 | 0.03 | 67 | 1010.2 |
| 20260505002535 | 55 | 81 | 0.0 | 9.0 | 0.02 | 0.02 | 0.02 | 65 | 1010.3 |
| 20260505002034 | 56 | 85 | 2.0 | 10.0 | 0.02 | 0.02 | 0.02 | 62 | 1010.2 |
| 20260505001552 | 57 | 133 | 3.0 | 13.0 | 0.02 | 0.02 | 0.02 | 58 | 1010.1 |
| 20260505001034 | 58 | 140 | 5.0 | 13.0 | 0.01 | 0.01 | 0.01 | 53 | 1010.1 |
| 20260505000533 | 59 | 214 | 6.0 | 15.0 | 0.00 | 0.00 | 0.00 | 52 | 1009.7 |
| 20260505000054 | 60 | 200 | 7.0 | 15.0 | 0.00 | 0.00 | 0.00 | 48 | 1009.6 |
| 20260504235537 | 61 | 203 | 7.0 | 15.0 | 0.00 | 0.00 | 0.00 | 46 | 1009.4 |
| 20260504235037 | 61 | 211 | 6.0 | 15.0 | 0.00 | 0.00 | 0.00 | 44 | 1009.3 |
| 20260504234552 | 62 | 210 | 7.0 | 13.0 | 0.00 | 0.00 | 0.00 | 40 | 1009.1 |
| 20260504234036 | 62 | 164 | 5.0 | 10.0 | 0.00 | 0.00 | 0.00 | 38 | 1009.0 |
| 20260504233538 | 62 | 182 | 5.0 | 8.0 | 0.00 | 0.00 | 0.00 | 38 | 1008.9 |
| 20260504233045 | 62 | 187 | 3.0 | 6.0 | 0.00 | 0.00 | 0.00 | 40 | 1008.9 |
| 20260504232539 | 63 | 201 | 2.0 | 4.0 | 0.00 | 0.00 | 0.00 | 39 | 1008.8 |
| 20260504232039 | 63 | 223 | 2.0 | 4.0 | 0.00 | 0.00 | 0.00 | 39 | 1008.7 |
| 20260504231558 | 63 | 313 | 0.0 | 3.0 | 0.00 | 0.00 | 0.00 | 38 | 1008.7 |
| 20260504231039 | 63 | 315 | 0.0 | 3.0 | 0.00 | 0.00 | 0.00 | 39 | 1008.6 |
| 20260504230539 | 63 | 309 | 0.0 | 3.0 | 0.00 | 0.00 | 0.00 | 38 | 1008.5 |
| 20260504230049 | 63 | 325 | 0.0 | 3.0 | 0.00 | 0.00 | 0.00 | 37 | 1008.3 |
| 20260504225539 | 63 | 0 | 1.0 | 3.0 | 0.00 | 0.00 | 0.00 | 37 | 1008.2 |
| 20260504225039 | 64 | 292 | 0.0 | 6.0 | 0.00 | 0.00 | 0.00 | 38 | 1008.1 |
| 20260504224546 | 64 | 308 | 1.0 | 7.0 | 0.00 | 0.00 | 0.00 | 36 | 1008.1 |
| 20260504224039 | 64 | 292 | 1.0 | 7.0 | 0.00 | 0.00 | 0.00 | 38 | 1008.0 |
| 20260504223540 | 64 | 314 | 2.0 | 7.0 | 0.00 | 0.00 | 0.00 | 36 | 1008.1 |
| 20260504223046 | 64 | 281 | 1.0 | 7.0 | 0.00 | 0.00 | 0.00 | 37 | 1008.2 |
| 20260504222540 | 64 | 320 | 2.0 | 8.0 | 0.00 | 0.00 | 0.00 | 38 | 1008.3 |
| 20260504222039 | 64 | 302 | 3.0 | 8.0 | 0.00 | 0.00 | 0.00 | 38 | 1008.2 |
| 20260504221557 | 64 | 19 | 3.0 | 8.0 | 0.00 | 0.00 | 0.00 | 37 | 1008.3 |
| 20260504221038 | 63 | 352 | 1.0 | 6.0 | 0.00 | 0.00 | 0.00 | 39 | 1008.4 |
| 20260504220539 | 63 | 358 | 2.0 | 6.0 | 0.00 | 0.00 | 0.00 | 40 | 1008.4 |
| 20260504220052 | 62 | 336 | 1.0 | 6.0 | 0.00 | 0.00 | 0.00 | 40 | 1008.6 |
| 20260504215540 | 62 | 352 | 2.0 | 8.0 | 0.00 | 0.00 | 0.00 | 40 | 1008.7 |
| 20260504215039 | 62 | 328 | 2.0 | 9.0 | 0.00 | 0.00 | 0.00 | 40 | 1008.7 |
| 20260504214551 | 62 | 264 | 4.0 | 9.0 | 0.00 | 0.00 | 0.00 | 39 | 1009.0 |
| 20260504214040 | 63 | 263 | 3.0 | 15.0 | 0.00 | 0.00 | 0.00 | 40 | 1008.9 |
| 20260504213540 | 63 | 315 | 3.0 | 15.0 | 0.00 | 0.00 | 0.00 | 40 | 1008.8 |
| 20260504213050 | 63 | 254 | 6.0 | 15.0 | 0.00 | 0.00 | 0.00 | 39 | 1008.6 |
| 20260504212539 | 62 | 284 | 5.0 | 12.0 | 0.00 | 0.00 | 0.00 | 38 | 1008.3 |
| 20260504212039 | 62 | 309 | 3.0 | 14.0 | 0.00 | 0.00 | 0.00 | 39 | 1008.4 |
| 20260504211552 | 62 | 260 | 6.0 | 18.0 | 0.00 | 0.00 | 0.00 | 39 | 1008.2 |
| 20260504211038 | 62 | 290 | 8.0 | 18.0 | 0.00 | 0.00 | 0.00 | 40 | 1008.4 |
| 20260504210538 | 62 | 287 | 8.0 | 20.0 | 0.00 | 0.00 | 0.00 | 39 | 1008.7 |
| 20260504210105 | 62 | 246 | 11.0 | 20.0 | 0.00 | 0.00 | 0.00 | 38 | 1008.8 |
| 20260504205539 | 63 | 265 | 5.0 | 12.0 | 0.00 | 0.00 | 0.00 | 38 | 1009.1 |
| 20260504205041 | 62 | 342 | 5.0 | 12.0 | 0.00 | 0.00 | 0.00 | 39 | 1009.1 |
| 20260504204553 | 62 | 360 | 5.0 | 14.0 | 0.00 | 0.00 | 0.00 | 39 | 1009.2 |
| 20260504204038 | 62 | 308 | 4.0 | 14.0 | 0.00 | 0.00 | 0.00 | 39 | 1009.1 |
| 20260504203538 | 62 | 347 | 7.0 | 14.0 | 0.00 | 0.00 | 0.00 | 38 | 1009.1 |
| 20260504203053 | 62 | 42 | 6.0 | 12.0 | 0.00 | 0.00 | 0.00 | 38 | 1009.4 |
| 20260504202538 | 62 | 22 | 4.0 | 18.0 | 0.00 | 0.00 | 0.00 | 37 | 1009.3 |
| 20260504202038 | 62 | 17 | 6.0 | 18.0 | 0.00 | 0.00 | 0.00 | 38 | 1009.5 |
| 20260504201550 | 62 | 69 | 11.0 | 18.0 | 0.00 | 0.00 | 0.00 | 37 | 1009.6 |
| 20260504201038 | 62 | 347 | 5.0 | 15.0 | 0.00 | 0.00 | 0.00 | 44 | 1009.7 |
| 20260504200539 | 62 | 347 | 5.0 | 27.0 | 0.00 | 0.00 | 0.00 | 40 | 1009.7 |
| 20260504200059 | 62 | 47 | 9.0 | 27.0 | 0.00 | 0.00 | 0.00 | 40 | 1009.6 |
| 20260504195538 | 62 | 32 | 10.0 | 27.0 | 0.00 | 0.00 | 0.00 | 38 | 1009.6 |
| 20260504195038 | 63 | 358 | 8.0 | 16.0 | 0.00 | 0.00 | 0.00 | 39 | 1009.3 |
| 20260504194607 | 63 | 31 | 4.0 | 12.0 | 0.00 | 0.00 | 0.00 | 40 | 1009.4 |
| 20260504194038 | 63 | 15 | 3.0 | 16.0 | 0.00 | 0.00 | 0.00 | 38 | 1009.2 |
| 20260504193538 | 63 | 9 | 8.0 | 16.0 | 0.00 | 0.00 | 0.00 | 33 | 1008.9 |
| 20260504193058 | 63 | 33 | 8.0 | 18.0 | 0.00 | 0.00 | 0.00 | 35 | 1008.5 |
| 20260504192538 | 63 | 77 | 9.0 | 18.0 | 0.00 | 0.00 | 0.00 | 35 | 1008.2 |
| 20260504192038 | 63 | 2 | 7.0 | 22.0 | 0.00 | 0.00 | 0.00 | 36 | 1008.5 |
| 20260504191552 | 64 | 339 | 10.0 | 22.0 | 0.00 | 0.00 | 0.00 | 35 | 1008.5 |
| 20260504191038 | 65 | 327 | 7.0 | 17.0 | 0.00 | 0.00 | 0.00 | 30 | 1008.4 |
| 20260504190538 | 65 | 15 | 4.0 | 17.0 | 0.00 | 0.00 | 0.00 | 28 | 1007.9 |
| 20260504190117 | 66 | 352 | 6.0 | 19.0 | 0.00 | 0.00 | 0.00 | 29 | 1007.9 |
| 20260504185537 | 67 | 10 | 10.0 | 19.0 | 0.00 | 0.00 | 0.00 | 26 | 1007.9 |
| 20260504185038 | 68 | 36 | 11.0 | 17.0 | 0.00 | 0.00 | 0.00 | 25 | 1007.7 |
| 20260504184558 | 69 | 35 | 5.0 | 9.0 | 0.00 | 0.00 | 0.00 | 26 | 1007.7 |
| 20260504184038 | 69 | 17 | 4.0 | 10.0 | 0.00 | 0.00 | 0.00 | 23 | 1007.6 |
| 20260504183538 | 69 | 40 | 4.0 | 14.0 | 0.00 | 0.00 | 0.00 | 23 | 1007.5 |
| 20260504183050 | 69 | 19 | 5.0 | 14.0 | 0.00 | 0.00 | 0.00 | 23 | 1007.5 |
| 20260504182538 | 70 | 36 | 6.0 | 15.0 | 0.00 | 0.00 | 0.00 | 23 | 1007.5 |
| 20260504182038 | 70 | 312 | 6.0 | 15.0 | 0.00 | 0.00 | 0.00 | 22 | 1007.6 |
| 20260504181558 | 70 | 294 | 7.0 | 18.0 | 0.00 | 0.00 | 0.00 | 23 | 1007.5 |
| 20260504181038 | 71 | 19 | 7.0 | 18.0 | 0.00 | 0.00 | 0.00 | 23 | 1007.7 |
| 20260504180539 | 71 | 352 | 5.0 | 13.0 | 0.00 | 0.00 | 0.00 | 23 | 1007.5 |
| 20260504180143 | 71 | 18 | 4.0 | 12.0 | 0.00 | 0.00 | 0.00 | 21 | 1007.7 |
| 20260504175540 | 71 | 35 | 5.0 | 15.0 | 0.00 | 0.00 | 0.00 | 21 | 1007.5 |
| 20260504175038 | 72 | 4 | 5.0 | 17.0 | 0.00 | 0.00 | 0.00 | 19 | 1007.7 |
| 20260504174549 | 73 | 296 | 2.0 | 17.0 | 0.00 | 0.00 | 0.00 | 24 | 1007.8 |
| 20260504174040 | 72 | 21 | 7.0 | 18.0 | 0.00 | 0.00 | 0.00 | 21 | 1007.9 |
| 20260504173538 | 72 | 317 | 7.0 | 18.0 | 0.00 | 0.00 | 0.00 | 21 | 1007.9 |
| 20260504173108 | 72 | 333 | 7.0 | 17.0 | 0.00 | 0.00 | 0.00 | 21 | 1007.9 |
| 20260504172538 | 72 | 342 | 5.0 | 13.0 | 0.00 | 0.00 | 0.00 | 21 | 1007.9 |
| 20260504172038 | 73 | 313 | 6.0 | 12.0 | 0.00 | 0.00 | 0.00 | 21 | 1007.9 |
| 20260504171556 | 72 | 274 | 3.0 | 8.0 | 0.00 | 0.00 | 0.00 | 24 | 1008.0 |
| 20260504171041 | 72 | 246 | 1.0 | 11.0 | 0.00 | 0.00 | 0.00 | 26 | 1007.9 |
| 20260504170539 | 72 | 352 | 3.0 | 11.0 | 0.00 | 0.00 | 0.00 | 21 | 1008.0 |
| 20260504151038 | 57 | 0 | 0.0 | 3.0 | 0.00 | 0.00 | 0.00 | 45 | 1008.8 |
| 20260504150538 | 56 | 247 | 0.0 | 3.0 | 0.00 | 0.00 | 0.00 | 40 | 1008.8 |
| 20260504141037 | 48 | 325 | 1.0 | 4.0 | 0.00 | 0.00 | 0.00 | 55 | 1009.2 |
| 20260504140538 | 48 | 329 | 1.0 | 4.0 | 0.00 | 0.00 | 0.00 | 59 | 1009.2 |
| 20260504140112 | 47 | 358 | 0.0 | 4.0 | 0.00 | 0.00 | 0.00 | 60 | 1009.1 |
| 20260504130540 | 44 | 244 | 1.0 | 3.0 | 0.00 | 0.00 | 0.00 | 61 | 1009.2 |
| 20260504120110 | 41 | 0 | 0.0 | 1.0 | 0.00 | 0.00 | 0.00 | 60 | 1009.1 |
| 20260504110538 | 42 | 0 | 0.0 | 3.0 | 0.00 | 0.00 | 0.00 | 58 | 1009.4 |
| 20260504100542 | 44 | 347 | 1.0 | 3.0 | 0.00 | 0.00 | 0.00 | 60 | 1009.6 |
| 20260504081546 | 46 | 324 | 1.0 | 4.0 | 0.00 | 0.00 | 0.00 | 55 | 1010.5 |
| 20260504081039 | 47 | 360 | 1.0 | 3.0 | 0.00 | 0.00 | 0.00 | 56 | 1010.5 |
| 20260504080537 | 47 | 0 | 0.0 | 3.0 | 0.00 | 0.00 | 0.00 | 57 | 1010.4 |
| 20260504050537 | 57 | 317 | 2.0 | 5.0 | 0.00 | 0.00 | 0.00 | 36 | 1011.5 |
| 20260504050117 | 57 | 266 | 2.0 | 9.0 | 0.00 | 0.00 | 0.00 | 37 | 1011.5 |
| 20260504045537 | 58 | 347 | 2.0 | 9.0 | 0.00 | 0.00 | 0.00 | 36 | 1011.4 |
| 20260504045040 | 58 | 19 | 4.0 | 14.0 | 0.00 | 0.00 | 0.00 | 34 | 1011.5 |
| 20260504044545 | 59 | 347 | 3.0 | 14.0 | 0.00 | 0.00 | 0.00 | 33 | 1011.6 |
| 20260504044037 | 59 | 44 | 7.0 | 14.0 | 0.00 | 0.00 | 0.00 | 34 | 1011.4 |
| 20260504043538 | 58 | 306 | 5.0 | 10.0 | 0.00 | 0.00 | 0.00 | 34 | 1011.6 |
| 20260504043047 | 59 | 329 | 2.0 | 18.0 | 0.00 | 0.00 | 0.00 | 34 | 1011.6 |
| 20260504042538 | 59 | 246 | 4.0 | 21.0 | 0.00 | 0.00 | 0.00 | 33 | 1011.3 |
| 20260504042037 | 60 | 135 | 9.0 | 21.0 | 0.00 | 0.00 | 0.00 | 34 | 1011.0 |
| 20260504041548 | 60 | 86 | 8.0 | 16.0 | 0.00 | 0.00 | 0.00 | 33 | 1010.9 |
| 20260504041038 | 61 | 2 | 6.0 | 16.0 | 0.00 | 0.00 | 0.00 | 32 | 1011.1 |
| 20260504040537 | 61 | 79 | 7.0 | 22.0 | 0.00 | 0.00 | 0.00 | 32 | 1011.0 |
| 20260504040048 | 61 | 44 | 10.0 | 22.0 | 0.00 | 0.00 | 0.00 | 31 | 1011.3 |
| 20260504035540 | 61 | 22 | 10.0 | 23.0 | 0.00 | 0.00 | 0.00 | 31 | 1011.3 |
| 20260504035040 | 61 | 39 | 13.0 | 23.0 | 0.00 | 0.00 | 0.00 | 31 | 1011.2 |
| 20260504034550 | 61 | 83 | 9.0 | 20.0 | 0.00 | 0.00 | 0.00 | 32 | 1011.3 |
| 20260504034040 | 62 | 55 | 12.0 | 20.0 | 0.00 | 0.00 | 0.00 | 30 | 1011.5 |
| 20260504033540 | 63 | 33 | 8.0 | 21.0 | 0.00 | 0.00 | 0.00 | 28 | 1011.2 |
| 20260504033047 | 63 | 6 | 10.0 | 21.0 | 0.00 | 0.00 | 0.00 | 27 | 1011.1 |
| 20260504032538 | 64 | 79 | 7.0 | 20.0 | 0.00 | 0.00 | 0.00 | 27 | 1010.9 |
| 20260504032040 | 63 | 94 | 13.0 | 20.0 | 0.00 | 0.00 | 0.00 | 25 | 1010.7 |
| 20260504031603 | 63 | 76 | 7.0 | 14.0 | 0.00 | 0.00 | 0.00 | 25 | 1010.8 |
| 20260504031037 | 63 | 66 | 5.0 | 11.0 | 0.00 | 0.00 | 0.00 | 26 | 1010.9 |
| 20260504030538 | 62 | 1 | 5.0 | 11.0 | 0.00 | 0.00 | 0.00 | 27 | 1010.9 |
| 20260504030050 | 62 | 43 | 5.0 | 11.0 | 0.00 | 0.00 | 0.00 | 32 | 1010.9 |
| 20260504025538 | 62 | 0 | 1.0 | 6.0 | 0.00 | 0.00 | 0.00 | 32 | 1010.6 |
| 20260504025038 | 62 | 43 | 0.0 | 8.0 | 0.00 | 0.00 | 0.00 | 33 | 1010.4 |